This is the latest recevied weather packets stored in our database for station/object GJ7DNI-13. If no packets are shown the sender has not sent any weather packets the latest 10 day(s).
| Time | Temp. | Humidity | Pressure | Rain* | Wind** | Luminosity | Snow |
|---|---|---|---|---|---|---|---|
| 1777375513 | 15.56° C | 61% | 1019.1 hPa | 0 mm | - | 381 W/m² | - |
| 1777375213 | 15.56° C | 60% | 1019.1 hPa | 0 mm | - | 701 W/m² | - |
| 1777374913 | 15.56° C | 61% | 1019.1 hPa | 0 mm | - | 536 W/m² | - |
| 1777374613 | 15° C | 63% | 1019.1 hPa | 0 mm | - | 503 W/m² | - |
| 1777374313 | 15° C | 63% | 1019.2 hPa | 0 mm | - | 536 W/m² | - |
| 1777374013 | 15° C | 63% | 1019.1 hPa | 0 mm | - | 417 W/m² | - |
| 1777373713 | 15° C | 63% | 1019.2 hPa | 0 mm | - | 371 W/m² | - |
| 1777373413 | 15° C | 62% | 1019.1 hPa | 0 mm | - | 330 W/m² | - |
| 1777373113 | 15.56° C | 60% | 1019.2 hPa | 0 mm | - | 404 W/m² | - |
| 1777372813 | 15.56° C | 60% | 1019.2 hPa | 0 mm | - | 838 W/m² | - |
| 1777372513 | 15.56° C | 61% | 1019.2 hPa | 0 mm | - | 858 W/m² | - |
| 1777372213 | 15° C | 65% | 1019.2 hPa | 0 mm | - | 691 W/m² | - |
| 1777371913 | 14.44° C | 64% | 1019.3 hPa | 0 mm | - | 318 W/m² | - |
| 1777371613 | 14.44° C | 64% | 1019.3 hPa | 0 mm | - | 292 W/m² | - |
| 1777371313 | 14.44° C | 64% | 1019.4 hPa | 0 mm | - | 290 W/m² | - |
| 1777371013 | 14.44° C | 64% | 1019.5 hPa | 0 mm | - | 318 W/m² | - |
| 1777370713 | 14.44° C | 64% | 1019.4 hPa | 0 mm | - | 478 W/m² | - |
| 1777370413 | 14.44° C | 65% | 1019.5 hPa | 0 mm | - | 424 W/m² | - |
| 1777370113 | 13.89° C | 66% | 1019.6 hPa | 0 mm | - | 318 W/m² | - |
| 1777369813 | 14.44° C | 65% | 1019.6 hPa | 0 mm | - | 422 W/m² | - |
| 1777369513 | 14.44° C | 64% | 1019.6 hPa | 0 mm | - | 301 W/m² | - |
| 1777369213 | 13.89° C | 67% | 1019.6 hPa | 0 mm | - | 663 W/m² | - |
| 1777368914 | 13.89° C | 67% | 1019.6 hPa | 0 mm | - | 598 W/m² | - |
| 1777368614 | 13.33° C | 67% | 1019.6 hPa | 0 mm | - | 213 W/m² | - |
| 1777368314 | 13.89° C | 67% | 1019.6 hPa | 0 mm | - | 216 W/m² | - |
* Rain latest hour (hover to see other rain measurements)
** Current wind speed in m/s (hover to see current wind gust speed)